COSMOS 2251 DEB

Satellite information

Favourite Embed

Satellite Type and Status

DEBRISIN ORBIT

Key statistics

Satellite COSMOS 2251 DEB at a glance.

Uptime

11813

Days in orbit

Revolutions

≈ 14.4

Per day

Orbit

LEO

Low Earth Orbit

Inclination

74.0

Latest

Satellite identification and parameters

Extended collection of information and parameters for COSMOS 2251 DEB.

Object identification

Identified? True

Debris? True

Object name: COSMOS 2251 DEB

International designator: 1993-036CR

Object number (NORAD): 33848

Object ID (CCSDS): 33848

Country: COMMONWEALTH OF INDEPENDENT STATES (CIS)

Current information (Y/N): Y

RCS size: SMALL

Orbital parameters

Period: 99.761 minutes

Inclination: 74.0291 deg

SMA: 7125.251 km

Apoapsis: 778.444 km

Periapsis: 715.788 km

RAAN: 99.5396 deg

Eccentricy: 0.00439671

Argument of periapsis: 172.1439 deg

Mean anomaly: 343.9647 deg

Mean motion: 14.43452559 rev/day

Mean motion (dot): 0.00008416 rev/day2

B* drag term: 0.0024658731 1/REarth

Two-line elements (TLE)

Creation date: Oct. 19, 2025, 2:20 a.m.

Reference frame: TEME

Reference center: EARTH

Epoch: Oct. 18, 2025, 10:45 p.m. UTC

TLE line 0: 0 COSMOS 2251 DEB

TLE line 1: 1 33848U 93036CR 25291.94827530 .00008416 00000-0 24659-2 0 9991

TLE line 2: 2 33848 74.0291 99.5396 0043967 172.1439 343.9647 14.43452559870405

Live tracking on map

Real-time ground track for satellite COSMOS 2251 DEB.

In-orbit conjunctions

A list of the most updated potential collisions computed for object COSMOS 2251 DEB.

Target Orbit TCA Probability of collision Miss distance Type
FENGYUN 1C DEB SSO 2025-08-04 00:46:25 0.0002080977 142.0 (m) DEBRIS
FENGYUN 1C DEB SSO 2024-11-13 21:04:49 0.0001684791 825.0 (m) DEBRIS

Associated space launch

Military communications satellite. Destroyed in a collision with Iridium 33.

COSMOS 2251 DEB was lifted into orbit during the mission ‘Kosmos-3M | Strela-2M 51’, on board a Kosmos-3M space rocket.

The launch took place on June 16, 1993, 4:17 a.m. from 132/1 (132L).

For more information about the launch, click the button.

Launch to space Kosmos-3M | Strela-2M 51
Kosmos-3M | Strela-2M 51

Agency: N/A

Status: Launch Successful

Launch date: June 16, 1993, 4:17 a.m. UTC

Rocket: Kosmos-3M

Launch pad: 132/1 (132L)

Location: Plesetsk Cosmodrome, Russian Federation

...

Latest news about this satellite

There are no fresh news available about this satellite. Check back as we update our databases every day.


Newsletter sign-up

Weekly statistics, charts and insights to help you stay on top of the space industry.